UAL154A PTKK-PGUM

Flight info

Callsign UAL154A
Flight time 1h 23m
Altitude 36000
Route WUMVE GUNSS
Aircraft B38M/M-SDE1FGHILORVWXY/HB1

Departure

Time 2026-05-06 01:26
Airport Chuuk International Airport (PTKK)

Arrival

Time 2026-05-06 02:50
Airport Antonio B. Won Pat International Airport (PGUM)
Time Latitude Longitude Altitude Speed Heading
2026-05-06 01:08 7.45852 151.84153 16 ft 0 kts 113°
2026-05-06 01:22 7.45850 151.84156 16 ft 1 kts 113°
2026-05-06 01:22 7.45846 151.84162 18 ft 0 kts 144°
2026-05-06 01:22 7.45845 151.84162 16 ft 0 kts 155°
2026-05-06 01:23 7.45843 151.84162 16 ft 1 kts 161°
2026-05-06 01:23 7.45829 151.84150 17 ft 4 kts 251°
2026-05-06 01:23 7.45835 151.84123 16 ft 5 kts 286°
2026-05-06 01:23 7.45848 151.84086 16 ft 0 kts 300°
2026-05-06 01:24 7.45850 151.84084 16 ft 2 kts 302°
2026-05-06 01:24 7.45887 151.84032 14 ft 16 kts 288°
2026-05-06 01:24 7.45828 151.83918 13 ft 23 kts 225°
2026-05-06 01:24 7.45719 151.83804 12 ft 21 kts 226°
2026-05-06 01:25 7.45639 151.83710 10 ft 17 kts 192°
2026-05-06 01:25 7.45607 151.83744 10 ft 5 kts 66°
2026-05-06 01:25 7.45648 151.83758 12 ft 19 kts 21°
2026-05-06 01:25 7.45954 151.84061 14 ft 103 kts 46°
2026-05-06 01:26 7.46606 151.84767 57 ft 165 kts 48°
2026-05-06 01:26 7.47553 151.85530 670 ft 186 kts 22°
2026-05-06 01:26 7.48887 151.85492 1515 ft 194 kts 333°
2026-05-06 01:26 7.49781 151.84560 2671 ft 193 kts 299°
2026-05-06 01:27 7.50136 151.83184 3153 ft 215 kts 270°
2026-05-06 01:27 7.50097 151.81632 3696 ft 236 kts 276°
2026-05-06 01:27 7.50658 151.80021 4246 ft 256 kts 305°
2026-05-06 01:27 7.51809 151.78596 5038 ft 264 kts 312°
2026-05-06 01:28 7.53030 151.77143 5796 ft 280 kts 311°
2026-05-06 01:28 7.54325 151.75605 6521 ft 295 kts 310°
2026-05-06 01:28 7.55661 151.74024 7496 ft 295 kts 311°
2026-05-06 01:28 7.57000 151.72439 8441 ft 301 kts 311°
2026-05-06 01:29 7.58371 151.70821 9403 ft 303 kts 310°
2026-05-06 01:29 7.59750 151.69194 10241 ft 311 kts 310°
2026-05-06 01:29 7.61196 151.67486 10682 ft 330 kts 310°
2026-05-06 01:29 7.62733 151.65672 11029 ft 350 kts 310°
2026-05-06 01:30 7.64344 151.63769 11522 ft 362 kts 310°
2026-05-06 01:30 7.65997 151.61817 12193 ft 367 kts 310°
2026-05-06 01:30 7.67664 151.59847 12905 ft 372 kts 310°
2026-05-06 01:30 7.69356 151.57849 13588 ft 377 kts 310°
2026-05-06 01:31 7.71067 151.55827 14173 ft 381 kts 310°
2026-05-06 01:31 7.72793 151.53787 14800 ft 384 kts 310°
2026-05-06 01:31 7.74523 151.51743 15386 ft 387 kts 310°
2026-05-06 01:31 7.76277 151.49670 15973 ft 390 kts 310°
2026-05-06 01:32 7.78047 151.47577 16532 ft 394 kts 310°
2026-05-06 01:32 7.79831 151.45467 17097 ft 397 kts 310°
2026-05-06 01:32 7.81631 151.43339 17634 ft 400 kts 310°
2026-05-06 01:32 7.83446 151.41192 18145 ft 404 kts 310°
2026-05-06 01:33 7.85274 151.39029 18627 ft 406 kts 310°
2026-05-06 01:33 7.87110 151.36858 19102 ft 408 kts 310°
2026-05-06 01:33 7.88959 151.34669 19543 ft 411 kts 310°
2026-05-06 01:33 7.90789 151.32503 19991 ft 413 kts 309°
2026-05-06 01:34 7.92663 151.30286 20391 ft 417 kts 309°
2026-05-06 01:34 7.94551 151.28051 20828 ft 419 kts 309°
2026-05-06 01:34 7.96445 151.25809 21275 ft 421 kts 309°
2026-05-06 01:34 7.98346 151.23557 21696 ft 423 kts 309°
2026-05-06 01:35 8.00266 151.21284 22056 ft 428 kts 309°
2026-05-06 01:35 8.02200 151.18992 22460 ft 430 kts 309°
2026-05-06 01:35 8.04145 151.16688 22876 ft 432 kts 309°
2026-05-06 01:35 8.06101 151.14371 23269 ft 434 kts 309°
2026-05-06 01:36 8.08065 151.12043 23632 ft 437 kts 309°
2026-05-06 01:36 8.10039 151.09703 23951 ft 439 kts 309°
2026-05-06 01:36 8.12021 151.07354 24275 ft 441 kts 309°
2026-05-06 01:36 8.14011 151.04995 24620 ft 442 kts 309°
2026-05-06 01:37 8.16006 151.02628 24953 ft 443 kts 309°
2026-05-06 01:37 8.18012 151.00249 25250 ft 446 kts 308°
2026-05-06 01:37 8.20024 150.97862 25566 ft 447 kts 308°
2026-05-06 01:37 8.22047 150.95462 25876 ft 449 kts 308°
2026-05-06 01:38 8.24074 150.93057 26178 ft 451 kts 308°
2026-05-06 01:38 8.26114 150.90636 26472 ft 453 kts 308°
2026-05-06 01:38 8.28159 150.88208 26780 ft 455 kts 309°
2026-05-06 01:38 8.29514 150.86599 27013 ft 455 kts 309°
2026-05-06 01:39 8.32261 150.83336 27392 ft 457 kts 309°
2026-05-06 01:39 8.33625 150.81717 27620 ft 457 kts 309°
2026-05-06 01:39 8.35688 150.79265 27885 ft 460 kts 309°
2026-05-06 01:39 8.37768 150.76794 28140 ft 462 kts 308°
2026-05-06 01:40 8.39852 150.74319 28393 ft 464 kts 309°
2026-05-06 01:40 8.42622 150.71026 28811 ft 465 kts 309°
2026-05-06 01:40 8.44722 150.68530 29029 ft 467 kts 309°
2026-05-06 01:40 8.46146 150.66837 29267 ft 467 kts 309°
2026-05-06 01:41 8.48248 150.64337 29550 ft 468 kts 309°
2026-05-06 01:41 8.50361 150.61824 29798 ft 470 kts 309°
2026-05-06 01:41 8.52481 150.59302 30035 ft 471 kts 309°
2026-05-06 01:41 8.54576 150.56807 30244 ft 473 kts 309°
2026-05-06 01:42 8.56707 150.54272 30424 ft 475 kts 309°
2026-05-06 01:42 8.58849 150.51723 30633 ft 476 kts 309°
2026-05-06 01:42 8.60991 150.49171 30892 ft 476 kts 308°
2026-05-06 01:42 8.63135 150.46620 31097 ft 477 kts 308°
2026-05-06 01:43 8.65289 150.44054 31269 ft 480 kts 309°
2026-05-06 01:43 8.67451 150.41478 31411 ft 483 kts 309°
2026-05-06 01:43 8.69626 150.38888 31670 ft 483 kts 308°
2026-05-06 01:43 8.71799 150.36297 31863 ft 484 kts 308°
2026-05-06 01:44 8.73974 150.33706 32122 ft 483 kts 308°
2026-05-06 01:44 8.76147 150.31115 32408 ft 483 kts 308°
2026-05-06 01:44 8.78315 150.28531 32694 ft 482 kts 309°
2026-05-06 01:44 8.80479 150.25948 32993 ft 480 kts 308°
2026-05-06 01:45 8.82637 150.23374 33250 ft 480 kts 308°
2026-05-06 01:45 8.84796 150.20799 33554 ft 479 kts 309°
2026-05-06 01:45 8.86947 150.18232 33856 ft 478 kts 309°
2026-05-06 01:45 8.89093 150.15670 34069 ft 478 kts 308°
2026-05-06 01:46 8.91248 150.13097 34183 ft 481 kts 308°
2026-05-06 01:46 8.93411 150.10516 34403 ft 480 kts 309°
2026-05-06 01:46 8.94782 150.08878 34577 ft 0 kts 308°
2026-05-06 01:46 8.94985 150.08621 34693 ft 475 kts 308°
2026-05-06 01:47 8.97080 150.06076 35211 ft 469 kts 309°
2026-05-06 01:47 8.99216 150.03561 35241 ft 474 kts 309°
2026-05-06 01:47 9.01355 150.01020 35456 ft 473 kts 309°
2026-05-06 01:47 9.03484 149.98480 35671 ft 473 kts 309°
2026-05-06 01:48 9.05607 149.95943 35900 ft 472 kts 308°
2026-05-06 01:48 9.07729 149.93405 36104 ft 472 kts 308°
2026-05-06 01:48 9.09822 149.90901 36311 ft 472 kts 308°
2026-05-06 01:48 9.11939 149.88369 36519 ft 471 kts 309°
2026-05-06 01:49 9.14054 149.85839 36722 ft 471 kts 309°
2026-05-06 01:49 9.16165 149.83312 36939 ft 470 kts 308°
2026-05-06 01:49 9.18278 149.80783 37155 ft 469 kts 309°
2026-05-06 01:49 9.20378 149.78270 37404 ft 468 kts 308°
2026-05-06 01:50 9.22475 149.75758 37607 ft 467 kts 308°
2026-05-06 01:50 9.24571 149.73249 37803 ft 466 kts 308°
2026-05-06 01:50 9.26661 149.70746 37910 ft 466 kts 308°
2026-05-06 01:50 9.28749 149.68244 37881 ft 464 kts 309°
2026-05-06 01:51 9.32785 149.63407 37892 ft 462 kts 309°
2026-05-06 01:51 9.36936 149.58432 37872 ft 463 kts 308°
2026-05-06 01:52 9.41113 149.53420 37889 ft 468 kts 309°
2026-05-06 01:52 9.45290 149.48408 37881 ft 464 kts 309°
2026-05-06 01:53 9.49475 149.43385 37890 ft 469 kts 308°
2026-05-06 01:53 9.53670 149.38347 37876 ft 466 kts 307°
2026-05-06 01:54 9.57868 149.33303 37890 ft 470 kts 308°
2026-05-06 01:54 9.62075 149.28248 37878 ft 467 kts 308°
2026-05-06 01:55 9.66271 149.23202 37896 ft 470 kts 308°
2026-05-06 01:55 9.70486 149.18131 37886 ft 470 kts 308°
2026-05-06 01:56 9.74681 149.13085 37897 ft 471 kts 308°
2026-05-06 01:56 9.78866 149.08045 37878 ft 464 kts 307°
2026-05-06 01:57 9.83031 149.03028 37880 ft 467 kts 307°
2026-05-06 01:57 9.87222 148.97979 37891 ft 468 kts 308°
2026-05-06 01:58 9.91400 148.92942 37880 ft 466 kts 308°
2026-05-06 01:58 9.95583 148.87895 37881 ft 468 kts 308°
2026-05-06 01:59 9.99782 148.82830 37883 ft 469 kts 308°
2026-05-06 01:59 10.03973 148.77772 37874 ft 467 kts 307°
2026-05-06 02:00 10.08170 148.72703 37877 ft 472 kts 307°
2026-05-06 02:00 10.12416 148.67574 37890 ft 473 kts 307°
2026-05-06 02:01 10.16643 148.62463 37896 ft 472 kts 307°
2026-05-06 02:01 10.20852 148.57374 37880 ft 471 kts 307°
2026-05-06 02:02 10.24903 148.52473 37873 ft 471 kts 307°
2026-05-06 02:02 10.29081 148.47416 37889 ft 470 kts 308°
2026-05-06 02:03 10.33284 148.42328 37878 ft 471 kts 308°
2026-05-06 02:03 10.37519 148.37196 37891 ft 476 kts 308°
2026-05-06 02:04 10.41756 148.32061 37876 ft 473 kts 308°
2026-05-06 02:04 10.45996 148.26920 37886 ft 478 kts 308°
2026-05-06 02:05 10.50274 148.21732 37888 ft 477 kts 308°
2026-05-06 02:05 10.54516 148.16582 37889 ft 475 kts 308°
2026-05-06 02:06 10.58777 148.11407 37879 ft 480 kts 309°
2026-05-06 02:06 10.63045 148.06223 37872 ft 475 kts 309°
2026-05-06 02:07 10.67287 148.01069 37899 ft 478 kts 309°
2026-05-06 02:07 10.71548 147.95885 37855 ft 479 kts 309°
2026-05-06 02:08 10.75789 147.90726 37888 ft 476 kts 309°
2026-05-06 02:08 10.80039 147.85553 37885 ft 477 kts 309°
2026-05-06 02:09 10.84303 147.80360 37883 ft 480 kts 309°
2026-05-06 02:09 10.88555 147.75182 37867 ft 474 kts 308°
2026-05-06 02:10 10.92796 147.70011 37894 ft 478 kts 308°
2026-05-06 02:10 10.97051 147.64821 37874 ft 473 kts 309°
2026-05-06 02:11 11.01269 147.59674 37867 ft 476 kts 309°
2026-05-06 02:11 11.05532 147.54470 37877 ft 482 kts 309°
2026-05-06 02:12 11.09810 147.49244 37860 ft 478 kts 309°
2026-05-06 02:12 11.14067 147.44045 37911 ft 481 kts 308°
2026-05-06 02:13 11.18346 147.38810 37884 ft 481 kts 308°
2026-05-06 02:13 11.22616 147.33588 37847 ft 479 kts 308°
2026-05-06 02:14 11.26896 147.28350 37883 ft 481 kts 308°
2026-05-06 02:14 11.31153 147.23137 37883 ft 476 kts 308°
2026-05-06 02:15 11.35390 147.17946 37880 ft 479 kts 307°
2026-05-06 02:15 11.39666 147.12704 37881 ft 480 kts 308°
2026-05-06 02:16 11.43926 147.07481 37877 ft 481 kts 308°
2026-05-06 02:16 11.48224 147.02208 37890 ft 483 kts 308°
2026-05-06 02:17 11.52496 146.96963 37874 ft 477 kts 308°
2026-05-06 02:17 11.56752 146.91734 37915 ft 479 kts 308°
2026-05-06 02:18 11.60984 146.86533 37874 ft 476 kts 308°
2026-05-06 02:18 11.65227 146.81317 37868 ft 478 kts 308°
2026-05-06 02:19 11.69461 146.76109 37887 ft 474 kts 308°
2026-05-06 02:19 11.73642 146.70961 37887 ft 471 kts 308°
2026-05-06 02:20 11.79933 146.63213 37888 ft 470 kts 309°
2026-05-06 02:21 11.84078 146.58104 37888 ft 471 kts 308°
2026-05-06 02:21 11.88250 146.52960 37884 ft 468 kts 308°
2026-05-06 02:22 11.92401 146.47837 37881 ft 469 kts 308°
2026-05-06 02:22 11.96555 146.42710 37880 ft 467 kts 308°
2026-05-06 02:23 12.00684 146.37611 37882 ft 467 kts 308°
2026-05-06 02:23 12.04827 146.32491 37891 ft 467 kts 307°
2026-05-06 02:24 12.08958 146.27383 37898 ft 466 kts 308°
2026-05-06 02:24 12.13082 146.22281 37892 ft 466 kts 308°
2026-05-06 02:25 12.17203 146.17180 37885 ft 464 kts 308°
2026-05-06 02:25 12.21298 146.12109 37154 ft 463 kts 307°
2026-05-06 02:25 12.23375 146.09535 36016 ft 473 kts 308°
2026-05-06 02:26 12.25461 146.06951 35514 ft 468 kts 308°
2026-05-06 02:26 12.27521 146.04398 35044 ft 463 kts 308°
2026-05-06 02:26 12.29147 146.02381 34645 ft 460 kts 308°
2026-05-06 02:26 12.31173 145.99869 34144 ft 456 kts 308°
2026-05-06 02:27 12.33188 145.97371 33492 ft 455 kts 308°
2026-05-06 02:27 12.35202 145.94870 32675 ft 457 kts 308°
2026-05-06 02:27 12.37233 145.92349 31834 ft 461 kts 308°
2026-05-06 02:27 12.39282 145.89806 30928 ft 466 kts 308°
2026-05-06 02:28 12.41349 145.87238 30097 ft 469 kts 309°
2026-05-06 02:28 12.43403 145.84687 29193 ft 472 kts 308°
2026-05-06 02:28 12.45481 145.82105 28605 ft 467 kts 308°
2026-05-06 02:28 12.47535 145.79553 28015 ft 462 kts 309°
2026-05-06 02:29 12.49568 145.77024 27467 ft 458 kts 308°
2026-05-06 02:29 12.51577 145.74526 26943 ft 453 kts 309°
2026-05-06 02:29 12.53572 145.72046 26340 ft 451 kts 309°
2026-05-06 02:29 12.55559 145.69573 25781 ft 448 kts 309°
2026-05-06 02:30 12.57525 145.67126 25288 ft 444 kts 309°
2026-05-06 02:30 12.59475 145.64699 24806 ft 440 kts 309°
2026-05-06 02:30 12.61413 145.62286 24276 ft 438 kts 310°
2026-05-06 02:30 12.63329 145.59899 24009 ft 432 kts 310°
2026-05-06 02:31 12.65250 145.57506 23889 ft 436 kts 310°
2026-05-06 02:31 12.67174 145.55108 23892 ft 436 kts 310°
2026-05-06 02:31 12.69080 145.52731 23430 ft 432 kts 310°
2026-05-06 02:31 12.70992 145.50348 22720 ft 433 kts 310°
2026-05-06 02:32 12.72897 145.47972 22171 ft 430 kts 310°
2026-05-06 02:32 12.74796 145.45604 21607 ft 429 kts 310°
2026-05-06 02:32 12.76687 145.43245 21014 ft 429 kts 310°
2026-05-06 02:32 12.78573 145.40890 20502 ft 427 kts 311°
2026-05-06 02:33 12.80459 145.38536 19903 ft 428 kts 310°
2026-05-06 02:33 12.81705 145.36981 19634 ft 425 kts 311°
2026-05-06 02:33 12.86079 145.31517 18387 ft 426 kts 311°
2026-05-06 02:34 12.87946 145.29183 17949 ft 423 kts 311°
2026-05-06 02:34 12.89803 145.26862 17506 ft 419 kts 312°
2026-05-06 02:34 12.91651 145.24553 16959 ft 418 kts 311°
2026-05-06 02:34 12.93482 145.22262 16620 ft 412 kts 311°
2026-05-06 02:35 12.95287 145.20004 16179 ft 409 kts 312°
2026-05-06 02:35 12.97090 145.17749 15657 ft 410 kts 311°
2026-05-06 02:35 12.98878 145.15511 15143 ft 401 kts 312°
2026-05-06 02:35 13.00642 145.13302 14281 ft 401 kts 311°
2026-05-06 02:36 13.02398 145.11104 13586 ft 396 kts 311°
2026-05-06 02:36 13.04105 145.08966 12854 ft 390 kts 311°
2026-05-06 02:36 13.05810 145.06831 12212 ft 383 kts 312°
2026-05-06 02:36 13.07476 145.04742 11668 ft 373 kts 312°
2026-05-06 02:37 13.09098 145.02710 11188 ft 364 kts 312°
2026-05-06 02:37 13.10680 145.00726 10754 ft 354 kts 312°
2026-05-06 02:37 13.12215 144.98802 10370 ft 343 kts 312°
2026-05-06 02:37 13.13694 144.96945 10121 ft 329 kts 312°
2026-05-06 02:38 13.15105 144.95175 9955 ft 313 kts 313°
2026-05-06 02:38 13.16458 144.93479 9655 ft 303 kts 313°
2026-05-06 02:38 13.17776 144.91825 9270 ft 296 kts 313°
2026-05-06 02:38 13.19065 144.90208 8956 ft 290 kts 313°
2026-05-06 02:39 13.20339 144.88609 8637 ft 290 kts 313°
2026-05-06 02:39 13.21614 144.87008 8332 ft 289 kts 313°
2026-05-06 02:39 13.22881 144.85418 8038 ft 287 kts 313°
2026-05-06 02:39 13.24142 144.83833 7762 ft 285 kts 313°
2026-05-06 02:40 13.25387 144.82270 7508 ft 282 kts 313°
2026-05-06 02:40 13.26623 144.80716 7226 ft 280 kts 313°
2026-05-06 02:40 13.27852 144.79172 6961 ft 279 kts 313°
2026-05-06 02:40 13.29078 144.77632 6697 ft 277 kts 314°
2026-05-06 02:41 13.30095 144.75979 6432 ft 275 kts 294°
2026-05-06 02:41 13.30459 144.74067 6069 ft 274 kts 272°
2026-05-06 02:41 13.30382 144.72131 5740 ft 269 kts 270°
2026-05-06 02:41 13.30532 144.70242 5413 ft 263 kts 282°
2026-05-06 02:42 13.30989 144.68458 5176 ft 253 kts 292°
2026-05-06 02:42 13.31644 144.66848 4937 ft 234 kts 298°
2026-05-06 02:42 13.32362 144.65437 4849 ft 212 kts 306°
2026-05-06 02:42 13.33124 144.64217 4772 ft 202 kts 312°
2026-05-06 02:43 13.34023 144.63043 4818 ft 216 kts 317°
2026-05-06 02:43 13.35081 144.61928 4773 ft 218 kts 324°
2026-05-06 02:43 13.36255 144.60943 4673 ft 218 kts 334°
2026-05-06 02:43 13.37578 144.60246 4455 ft 206 kts 357°
2026-05-06 02:44 13.38871 144.60396 4112 ft 178 kts 37°
2026-05-06 02:44 13.39709 144.61207 3849 ft 158 kts 63°
2026-05-06 02:44 13.40228 144.62136 3651 ft 143 kts 66°
2026-05-06 02:44 13.40680 144.62991 3451 ft 130 kts 67°
2026-05-06 02:45 13.41110 144.63777 3331 ft 127 kts 65°
2026-05-06 02:45 13.41535 144.64571 3228 ft 128 kts 68°
2026-05-06 02:45 13.41925 144.65379 3053 ft 124 kts 69°
2026-05-06 02:45 13.42288 144.66165 2855 ft 120 kts 70°
2026-05-06 02:46 13.42642 144.66936 2669 ft 120 kts 69°
2026-05-06 02:46 13.43004 144.67725 2491 ft 126 kts 69°
2026-05-06 02:46 13.43388 144.68563 2362 ft 130 kts 69°
2026-05-06 02:46 13.43760 144.69367 2277 ft 122 kts 70°
2026-05-06 02:47 13.44112 144.70137 2201 ft 115 kts 70°
2026-05-06 02:47 13.44456 144.70876 1924 ft 116 kts 68°
2026-05-06 02:47 13.44808 144.71749 1419 ft 152 kts 63°
2026-05-06 02:47 13.45308 144.72704 1686 ft 151 kts 63°
2026-05-06 02:48 13.45786 144.73720 1625 ft 164 kts 69°
2026-05-06 02:48 13.46264 144.74759 1314 ft 157 kts 66°
2026-05-06 02:48 13.46758 144.75751 891 ft 158 kts 69°
2026-05-06 02:48 13.47164 144.76858 588 ft 165 kts 71°
2026-05-06 02:49 13.47661 144.77859 288 ft 150 kts 67°
2026-05-06 02:49 13.48052 144.78744 253 ft 120 kts 67°
2026-05-06 02:49 13.48283 144.79263 261 ft 52 kts 64°
2026-05-06 02:49 13.48431 144.79598 265 ft 50 kts 68°
2026-05-06 02:50 13.48564 144.79887 274 ft 40 kts 64°
2026-05-06 02:50 13.48684 144.80116 285 ft 34 kts 63°
2026-05-06 02:50 13.48787 144.80264 288 ft 20 kts 44°
2026-05-06 02:50 13.48869 144.80322 295 ft 9 kts
2026-05-06 02:51 13.48893 144.80303 289 ft 1 kts 270°
2026-05-06 02:51 13.48889 144.80290 293 ft 4 kts 253°
2026-05-06 02:51 13.48894 144.80247 301 ft 9 kts 299°
2026-05-06 02:51 13.48938 144.80227 286 ft 7 kts 349°
2026-05-06 02:52 13.48981 144.80209 285 ft 0 kts 333°